San Jose, Costa Rica

8:42 PM CST on October 19, 2017 (GMT -0600)
Juan Santamaria International

Weather History for MROC - October, 2011

Change the Weather History Date:

Thursday, October 6, 2011

  Actual Average Record
Temperature  
Mean Temperature 72 °F -  
Max Temperature 81 °F 78 °F 84 °F (2000)
Min Temperature 64 °F 64 °F 62 °F (1999)
Cooling Degree Days 8    
Growing Degree Days 22 (Base 50)    
Moisture  
Dew Point 69 °F    
Average Humidity 94    
Maximum Humidity 100    
Minimum Humidity 70    
Precipitation  
Precipitation 0.04 in 0.38 in - ()
Sea Level Pressure  
Sea Level Pressure 29.95 in    
Wind  
Wind Speed 3 mph ()    
Max Wind Speed 9 mph    
Max Gust Speed -    
Visibility 4.6 miles    
Events Fog , Rain , Thunderstorm    
Averages and records for this station are not official NWS values.
T = Trace of Precipitation, MM = Missing Value Source: Averaged Metar Reports

Daily Weather History Graph

Daily Weather History Graph

Search for Another Location

Airport or City:

Trip Planner

Search our weather history database for the weather conditions in past years. The results will help you decide how hot, cold, wet, or windy it might be!

Date:

Astronomy

Oct. 06, 2011 Rise Set
Actual Time 5:25 AM CST 5:24 PM CST
Civil Twilight 5:04 AM CST 5:45 PM CST
Nautical Twilight 4:39 AM CST 6:10 PM CST
Astronomical Twilight 4:15 AM CST 6:34 PM CST
Moon 1:50 PM CST (10/6) 1:06 AM CST (10/6)
Length of Visible Light 12h 41m
Length of Day
11h 59m
Waxing Gibbous, 76% of the Moon is Illuminated
Oct 6
Waxing Gibbous
Oct 11
Full
Oct 19
Last Quarter
Oct 26
New
Nov 2
First Quarter

Hourly Weather History & Observations

Time (CST) Temp. Heat Index Dew Point Humidity Pressure Visibility Wind Dir Wind Speed Gust Speed Precip Events Conditions
12:00 AM 68 °F - 68 °F 100% 29.82 in 6 mi SSW 3.5 mph - -   Haze
12:00 AM 68.0 °F - 68.0 °F 100% 29.99 in 6.2 mi SSW 3.5 mph - N/A   Mostly Cloudy
12:16 AM 68.0 °F - 68.0 °F 100% 29.98 in 0.2 mi WSW 5.8 mph - N/A Fog Fog
1:00 AM 68.0 °F - 68.0 °F 100% 29.97 in 1.6 mi Calm Calm - N/A   Mostly Cloudy
1:20 AM 68.0 °F - 68.0 °F 100% 29.97 in 5.0 mi Calm Calm - N/A Fog Fog
2:00 AM 66.2 °F - 66.2 °F 100% 29.96 in 5.0 mi Calm Calm - N/A Fog Fog
3:00 AM 64 °F - 64 °F 100% 29.82 in 12 mi NE 6.9 mph - -   Scattered Clouds
3:00 AM 64.4 °F - 64.4 °F 100% 29.94 in 6.2 mi NE 5.8 mph - N/A   Scattered Clouds
4:00 AM 66.2 °F - 66.2 °F 100% 29.95 in - ENE 8.1 mph - N/A   Clear
5:00 AM 66.2 °F - 64.4 °F 94% 29.95 in - ENE 6.9 mph - N/A   Clear
6:00 AM 66 °F - 64 °F 93% 29.85 in 12 mi NE 2.3 mph - -   Clear
6:00 AM 66.2 °F - 64.4 °F 94% 29.98 in - NE 2.3 mph - N/A   Clear
7:00 AM 71.6 °F - 66.2 °F 83% 30.00 in - Calm Calm - N/A   Clear
8:00 AM 75.2 °F - 66.2 °F 73% 30.01 in 6.2 mi East 3.5 mph - N/A   Mostly Cloudy
9:00 AM 75.2 °F - 68.0 °F 78% 30.02 in 6.2 mi East 6.9 mph - N/A   Scattered Clouds
10:00 AM 78.8 °F - 69.8 °F 74% 30.01 in 6.2 mi ESE 8.1 mph - N/A   Scattered Clouds
11:00 AM 80.6 °F 83.9 °F 69.8 °F 70% 29.99 in 6.2 mi SSW 4.6 mph - N/A   Mostly Cloudy
12:00 PM 77.0 °F - 71.6 °F 83% 29.99 in 6.2 mi SSW 9.2 mph - N/A   Mostly Cloudy
1:00 PM 78.8 °F - 71.6 °F 78% 29.94 in 6.2 mi Calm Calm - N/A   Mostly Cloudy
2:00 PM 78.8 °F - 73.4 °F 83% 29.93 in 6.2 mi WSW 9.2 mph - N/A   Mostly Cloudy
3:00 PM 75 °F - 73 °F 93% 29.79 in 12 mi West 4.6 mph - -   Overcast
3:00 PM 75.2 °F - 73.4 °F 94% 29.91 in 6.2 mi West 4.6 mph - N/A   Mostly Cloudy
4:00 PM 73.4 °F - 73.4 °F 100% 29.92 in 6.2 mi West 5.8 mph - N/A Rain , Thunderstorm Thunderstorms and Rain
5:00 PM 69.8 °F - 69.8 °F 100% 29.94 in 0.2 mi WSW 8.1 mph - N/A Fog Fog
6:00 PM 70 °F - 70 °F 99% 29.81 in 1 mi Calm Calm - -   Mist
6:00 PM 69.8 °F - 69.8 °F 100% 29.95 in 0.7 mi Calm Calm - N/A   Mostly Cloudy
6:26 PM 69.8 °F - 69.8 °F 100% 29.96 in 1.9 mi Calm Calm - N/A   Scattered Clouds
7:00 PM 69.8 °F - 69.8 °F 100% 29.96 in 1.9 mi Calm Calm - N/A   Scattered Clouds
7:09 PM 69.8 °F - 69.8 °F 100% 29.97 in 1.2 mi Calm Calm - N/A   Unknown
7:12 PM 69.8 °F - 69.8 °F 100% 29.97 in 0.5 mi Calm Calm - N/A Fog Fog
8:00 PM 69.8 °F - 69.8 °F 100% 29.99 in 1.2 mi Calm Calm - N/A   Mostly Cloudy
9:00 PM 70 °F - 70 °F 99% 29.84 in 2 mi NW 2.3 mph - - Rain Light Drizzle
9:00 PM 69.8 °F - 69.8 °F 100% 30.01 in 1.9 mi NW 2.3 mph - N/A   Drizzle
10:00 PM 69.8 °F - 69.8 °F 100% 30.01 in 3.1 mi Calm Calm - N/A   Mostly Cloudy
11:00 PM 69.8 °F - 69.8 °F 100% 30.01 in 6.2 mi NNE 2.3 mph - N/A Fog Scattered Clouds